TimePDT,TemperatureF,Dew PointF,Humidity,Sea Level PressureIn,VisibilityMPH,Wind Direction,Wind SpeedMPH,Gust SpeedMPH,PrecipitationIn,Events,Conditions,WindDirDegrees,DateUTC
12:55 AM,61.0,44.1,54,29.90,10.0,Calm,Calm,-,N/A,,Clear,0,2012-10-08 07:55:00
1:55 AM,61.0,45.0,56,29.90,10.0,Calm,Calm,-,N/A,,Clear,0,2012-10-08 08:55:00
2:55 AM,62.1,45.0,53,29.89,10.0,SSW,10.4,-,N/A,,Clear,210,2012-10-08 09:55:00
3:55 AM,59.0,46.0,62,29.90,10.0,SSW,9.2,-,N/A,,Clear,200,2012-10-08 10:55:00
4:55 AM,60.1,42.1,51,29.89,10.0,SW,11.5,-,N/A,,Clear,220,2012-10-08 11:55:00
5:55 AM,61.0,43.0,52,29.90,10.0,SW,9.2,-,N/A,,Clear,220,2012-10-08 12:55:00
6:55 AM,53.1,41.0,64,29.94,10.0,NNE,4.6,-,N/A,,Clear,30,2012-10-08 13:55:00
7:55 AM,59.0,42.1,53,29.94,10.0,SSE,4.6,-,N/A,,Clear,160,2012-10-08 14:55:00
8:55 AM,68.0,45.0,43,29.94,10.0,WSW,9.2,-,N/A,,Clear,240,2012-10-08 15:55:00
9:55 AM,72.0,42.1,34,29.93,10.0,SW,6.9,-,N/A,,Clear,230,2012-10-08 16:55:00
10:55 AM,75.9,37.0,24,29.91,10.0,SW,12.7,-,N/A,,Clear,230,2012-10-08 17:55:00
11:55 AM,80.1,39.0,23,29.90,10.0,WSW,12.7,-,N/A,,Clear,240,2012-10-08 18:55:00
12:55 PM,82.9,33.1,17,29.88,10.0,SSW,15.0,-,N/A,,Clear,210,2012-10-08 19:55:00
1:55 PM,84.0,33.1,16,29.86,10.0,SW,13.8,21.9,N/A,,Clear,230,2012-10-08 20:55:00
2:55 PM,84.9,30.9,14,29.84,10.0,SSW,18.4,23.0,N/A,,Clear,210,2012-10-08 21:55:00
3:55 PM,84.0,18.0,9,29.84,10.0,WSW,11.5,17.3,N/A,,Clear,250,2012-10-08 22:55:00
4:55 PM,81.0,26.1,13,29.86,10.0,West,16.1,-,N/A,,Clear,280,2012-10-08 23:55:00
5:55 PM,75.9,33.1,21,29.87,10.0,West,11.5,20.7,N/A,,Clear,260,2012-10-09 00:55:00
6:55 PM,70.0,41.0,35,29.91,10.0,WSW,9.2,-,N/A,,Clear,250,2012-10-09 01:55:00
7:55 PM,66.9,42.1,40,29.92,10.0,WSW,10.4,-,N/A,,Clear,240,2012-10-09 02:55:00
8:55 PM,64.9,41.0,42,29.93,10.0,SW,9.2,-,N/A,,Clear,230,2012-10-09 03:55:00
9:55 PM,64.0,43.0,46,29.94,10.0,WSW,12.7,-,N/A,,Clear,240,2012-10-09 04:55:00
11:55 PM,62.1,44.1,52,29.92,10.0,SW,11.5,-,N/A,,Clear,230,2012-10-09 06:55:00